Find Think Orbital F2

NORAD ID: 62380 Int'l Des: NNA 2024-247 Owner: THINK Country: US operational
LEOCIRCULAR

Live Position

Loading 3D Globe...

About Think Orbital F2

Description loading...

Upcoming Passes

Passes for default location (London). Set your location on the main map for personalized predictions.

Altitude History

Loading altitude history...

Two-Line Element Set

1 62380U 24247D 26108.68886634 .00008619 00000-0 30184-3 0 9997
2 62380 44.9944 255.7336 0004954 264.0130 96.0190 15.29914947 73886
Epoch: Apr 18, 2026 • Age: 58 hours

Current Status

Altitude 486.6 km
Velocity 7.62 km/s
Sub-Earth Point -44.41°S, 76.01°W
Launch Date Dec 21, 2024
Age 1.3 years
Type other

Technical Details

Classification Payload
Mass 20.00 kg
Dry Mass 20.00 kg
Total Mass 20.00 kg
Length 0.30 m
Diameter 0.20 m
Span 2.00 m
Shape Box+2 pan
Manufacturer THINK
Bus Type Cubesat 12U
Phase Status In Orbit
Owner/State THINK/US

Most Searched